Location: *
(1.3500°S, 147.5000°W)
Time: 19:45:44
(UTC+00:00)

CZ-4 R/B - Pass Details

Date: 07 April 2020
Orbit: 532 x 598 km, 97.8° (Epoch: 27 May)

Event Time Altitude Azimuth Distance (km) Brightness Sun altitude
Rises 04:55:24 0° 177° (S) 2,726 4.8 -15.9°
Reaches altitude 10° 04:57:35 10° 181° (S) 1,820 3.9 -16.4°
Maximum altitude 05:01:25 53° 258° (WSW) 669 2.1 -17.4°
Drops below altitude 10° 05:05:10 10° 336° (NNW) 1,783 4.3 -18.3°
Sets 05:07:17 0° 341° (NNW) 2,665 5.2 -18.8°
